Home   Weather   French Lick   Past weeks

Flag for USA Past Weather in French Lick, Indiana, USA — Yesterday and Last 2 Weeks

Now
48 °F

Low clouds.


Feels Like: 44 °F
Forecast: 38 / 51 °F
Wind: 9 mph from Southeast

Location: Huntingburg Airport

Current Time: Jan 19, 2017 at 6:58:29 pm

Latest Report: Jan 19, 2017 at 6:35 pm


Visibility: 10 mi

Pressure: 30.41 "Hg

Humidity: 100%

Dew Point: 48 °F

Location of French LickLocation

Past Weather in French Lick — Graph

°F

French Lick Temperature Yesterday

Maximum temperature yesterday: 43 °F (at 12:15 am)
Minimum temperature yesterday: 37 °F (at 9:56 pm)
Average temperature yesterday: 40 °F

High & Low Weather Summary for the Past Weeks

 TemperatureHumidityPressure
High68 °F (Jan 12, 1:15 pm)100% (Jan 11, 11:35 am)30.86 "Hg (Jan 11, 11:35 am)
Low3 °F (Jan 7, 7:56 am)41% (Jan 9, 10:56 pm)29.82 "Hg (Jan 10, 2:56 pm)
Average35 °F82%30.37 "Hg
* Reported Jan 4 5:15 pm — Jan 19 5:56 pm, French Lick, Weather by CustomWeather, © 2017

Note: Actual official high and low records may vary slightly from our data, if they occured in-between our weather recording intervals... More about our weather records

Advertising

French Lick Weather History for the Previous 24 Hours

Scroll right to see more
 ConditionsComfort  
Time TempWeatherWind HumidityBarometerVisibility
5:56 pm
Thu, Jan 19
49 °FLight rain. Overcast.7 mph97%29.84 "Hg10 mi
5:35 pm48 °FOvercast.7 mph94%30.41 "Hg9 mi
5:15 pm48 °FMostly cloudy.9 mph94%30.41 "Hg6 mi
4:56 pm49 °FLight rain. Cloudy.6 mph93%29.85 "Hg10 mi
4:35 pm48 °FMostly cloudy.7 mph94%30.41 "Hg10 mi
3:56 pm48 °FRain. Fog.6 mph96%29.86 "Hg4 mi
3:35 pm48 °FMostly cloudy.8 mph94%30.41 "Hg4 mi
3:15 pm48 °FMostly cloudy.7 mph87%30.41 "Hg4 mi
2:56 pm51 °FMostly cloudy.7 mph77%29.88 "Hg10 mi
2:35 pm50 °FMostly cloudy.8 mph82%30.41 "Hg10 mi
1:55 pm52 °FMostly cloudy.N/A72%30.41 "Hg10 mi
1:35 pm50 °FOvercast.9 mph76%30.42 "Hg10 mi
12:56 pm50 °FCloudy.7 mph74%29.96 "Hg10 mi
12:35 pm48 °FMostly cloudy.8 mph76%30.42 "Hg10 mi
12:15 pm48 °FOvercast.6 mph76%30.42 "Hg10 mi
11:56 am49 °FLight rain. Overcast.9 mph77%30.02 "Hg9 mi
11:35 am48 °FOvercast.7 mph76%30.42 "Hg10 mi
10:56 am48 °FPartly sunny.N/A74%30.03 "Hg10 mi
10:35 am46 °FPartly sunny.8 mph76%30.42 "Hg10 mi
10:15 am46 °FOvercast.12 mph76%30.42 "Hg10 mi
9:56 am45 °FPartly sunny.10 mph80%30.04 "Hg10 mi
9:35 am45 °FScattered clouds.10 mph81%30.42 "Hg10 mi
8:56 am43 °FMostly cloudy.7 mph82%30.06 "Hg10 mi
8:35 am43 °FOvercast.6 mph81%30.42 "Hg10 mi
8:15 am41 °FOvercast.8 mph87%30.42 "Hg10 mi
7:56 am41 °FOvercast.7 mph86%30.07 "Hg10 mi
7:35 am41 °FOvercast.9 mph87%30.42 "Hg10 mi
7:15 am41 °FMostly cloudy.8 mph87%30.42 "Hg10 mi
6:56 am41 °FOvercast.7 mph86%30.09 "Hg10 mi
6:35 am39 °FOvercast.8 mph93%30.42 "Hg10 mi
6:15 am39 °FOvercast.3 mph93%30.42 "Hg10 mi
5:56 am40 °FOvercast.5 mph86%30.11 "Hg10 mi
5:35 am39 °FOvercast.5 mph93%30.42 "Hg10 mi
5:15 am39 °FPassing clouds.5 mph93%30.42 "Hg10 mi
4:56 am39 °FPassing clouds.No wind89%30.13 "Hg10 mi
4:35 am39 °FPassing clouds.3 mph87%30.42 "Hg10 mi
4:15 am39 °FPassing clouds.5 mph87%30.42 "Hg10 mi
3:56 am40 °FPassing clouds.3 mph86%30.13 "Hg10 mi
3:35 am39 °FMostly cloudy.7 mph87%30.42 "Hg10 mi
3:15 am39 °FOvercast.7 mph93%30.42 "Hg10 mi
2:56 am40 °FOvercast.7 mph86%30.13 "Hg10 mi
2:35 am39 °FOvercast.6 mph87%30.42 "Hg10 mi
2:15 am37 °FPassing clouds.6 mph93%30.42 "Hg10 mi
1:56 am38 °FClear.3 mph90%30.14 "Hg9 mi
1:35 am37 °FClear.5 mph93%30.42 "Hg10 mi
1:15 am37 °FClear.No wind93%30.42 "Hg7 mi
12:56 am38 °FClear.No wind90%30.17 "Hg10 mi
12:35 am37 °FClear.3 mph93%30.42 "Hg9 mi
12:15 am37 °FClear.No wind93%30.42 "Hg7 mi
11:56 pm
Wed, Jan 18
37 °FClear.No wind93%30.19 "Hg7 mi
11:35 pm37 °FClear.No wind93%30.42 "Hg9 mi
11:15 pm37 °FClear.No wind93%30.42 "Hg8 mi
10:56 pm37 °FClear.No wind93%30.19 "Hg8 mi
10:35 pm37 °FClear.3 mph93%30.42 "Hg9 mi
9:56 pm37 °FClear.3 mph93%30.19 "Hg8 mi
9:35 pm37 °FClear.No wind93%30.42 "Hg10 mi
9:15 pm37 °FClear.No wind93%30.42 "Hg10 mi
8:56 pm38 °FClear.3 mph90%30.19 "Hg10 mi
8:35 pm37 °FClear.No wind93%30.42 "Hg10 mi
8:15 pm39 °FClear.No wind87%30.42 "Hg10 mi
7:56 pm39 °FClear.No wind86%30.21 "Hg10 mi
7:35 pm39 °FClear.No wind87%30.42 "Hg10 mi
7:15 pm39 °FClear.No wind87%30.42 "Hg10 mi
6:56 pm40 °FPassing clouds.3 mph83%30.19 "Hg10 mi
6:35 pm39 °FOvercast.3 mph87%30.42 "Hg10 mi
6:15 pm41 °FOvercast.5 mph81%30.42 "Hg10 mi
Weather by CustomWeather, © 2017

See weather overviewHow to use our weather pages